User: anonymous   Login
Location: Newark
(54.2500°N, 9.1833°E)
Time: 18:23:28
(UTC+00:00)
Language:

A-11 Canister half - Orbit

View from above orbital plane
View from above orbital plane
View from above satellite
View from above satellite

Ground track
Ground track

The orbit data is extracted from the following two-line orbital elements,

1    51U 60009C   19344.33278073 -.00000126  00000-0 -40662-3 0  9997
2    51  47.2106 215.6029 0106282 319.4159  39.8743 12.18274093640904
Epoch (UTC): 10 December 2019 07:59:12
Eccentricity: 0.0106282
inclination: 47.2106°
perigee height: 1515 km
apogee height: 1685 km
right ascension of ascending node: 215.6029°
argument of perigee: 319.4159°
revolutions per day: 12.18274093
mean anomaly at epoch: 39.8743°
orbit number at epoch: 64090

The dashed part of the orbit path shows where the satellite is in the earth's shadow,  

DLR